AirNav   Air Wisconsin pilot careers
 
 358 users online  

1TA7 Thompson Field Airport
Canton, Texas, USA

GOING TO CANTON?


FAA INFORMATION EFFECTIVE 19 JULY 2018

Location

FAA Identifier: 1TA7
Lat/Long: 32-36-57.0000N / 095-52-05.1750W
32-36.950000N / 095-52.086250W
32.6158333 / -95.8681042
(estimated)
Elevation: 518 ft. / 158 m (estimated)
Variation: 06E (1990)
From city: 4 miles N of CANTON, TX
Time zone: UTC -5 (UTC -6 during Standard Time)
Zip code: 75103

Airport Operations

Airport use: Private use. Permission required prior to landing
Activation date: 07/1995
Control tower: no
ARTCC: FORT WORTH CENTER
FSS: FORT WORTH FLIGHT SERVICE STATION
Attendance: MON-FRI 0800-1700
Wind indicator: yes
Segmented circle: no
Beacon: white-green (lighted land airport)
Operates sunset to sunrise.

Nearby radio navigation aids

VOR radial/distance  VOR name  Freq  Var
TYRr298/28.2TYLER VOR/DME114.2006E
UIMr230/29.9QUITMAN VOR/DME114.0008E
CQYr028/31.3CEDAR CREEK VORTAC114.8006E
FZTr326/36.7FRANKSTON VOR/DME111.4006E
SLRr197/38.6SULPHUR SPRINGS VOR/DME109.0008E

 
NDB name  Hdg/Dist  Freq  Var  ID
TRAVIS108/21.126006EAVZ .- ...- --..
ATHENS350/27.526906EAHX .- .... -..-
CADDO MILLS137/31.931606EMII -- .. ..
CROSSROADS360/33.421508ECSZ -.-. ... --..
MESQUITE106/35.324803EPQF .--. --.- ..-.
AMBASSADOR266/38.240407EABG .- -... --.

Airport Services

Fuel available: 100LL
Parking: hangars
Airframe service: MAJOR
Powerplant service: MAJOR

Runway Information

Runway 13/31

Dimensions: 2500 x 40 ft. / 762 x 12 m
Surface: asphalt
RUNWAY 13  RUNWAY 31
Latitude: 32-37.095833N32-36.804167N
Longitude: 095-52.258333W095-51.914167W
Elevation: 513.0 ft.511.0 ft.
Traffic pattern: leftright

Airport Ownership and Management from official FAA records

Ownership: Privately-owned
Owner: THOMPSON AIRFIELD, LLC
690 VZCR 3119
EDGEWOOD, TX 75117
Phone 903-896-4647
Manager: MARK THOMPSON
690 VZCR 3119
EDGEWOOD, TX 75117
Phone 903-896-4647

Airport Operational Statistics

Aircraft based on the field: 45
Single engine airplanes: 44
Helicopters: 1
    

Additional Remarks

PPR TO LAND. AGRICULTURE ACFT OPR ON FLD.

Instrument Procedures

There are no published instrument procedures at 1TA7.

Some nearby airports with instrument procedures:

3F9 - Mineola Airport-Wisener Field (18 nm E)
KJDD - Wood County Airport (20 nm E)
KTRL - Terrell Municipal Airport (21 nm W)
F44 - Athens Municipal Airport (27 nm S)
KTYR - Tyler Pounds Regional Airport (28 nm SE)
 
Loc | Ops | Rwys | IFR | FBO | Links
Com | Nav | Svcs | Stats | Notes


 
Area around 1TA7 (Thompson Field Airport)
 
Road maps at: MapQuest Bing Google
 
Aerial photo
WARNING: Photo may not be current or correct
Aerial photo of 1TA7 (Thompson Field Airport)
Photo by Jon Hicks
Taken in August 2010
looking southeast.

Do you have a better or more recent aerial photo of Thompson Field Airport that you would like to share? If so, please send us your photo.

 
Sectional chart

 
Airport distance calculator
Flying to Thompson Field Airport? Find the distance to fly.

From to 1TA7

Sunrise and sunset
Times for 19-Jul-2018
 Local
(UTC-5)
 Zulu
(UTC)
Morning civil twilight06:0211:02
Sunrise06:3011:30
Sunset20:2901:29
Evening civil twilight20:5701:57

Current date and time
Zulu (UTC)  19-Jul-2018 08:50:08
Local (UTC-5)  19-Jul-2018 03:50:08
 
METAR
KJDD 
20nm E 
190835Z AUTO 20006KT 10SM CLR 29/22 A2987 RMK AO2
KTRL 
21nm W 
181753Z AUTO 16007KT 140V200 10SM CLR 36/21 A2996 RMK AO2 SLP136 6//// T03560211 10361 20250 58008 PNO $
KF44 
27nm S 
190835Z AUTO 00000KT 10SM CLR 28/21 A2989 RMK AO2
KTYR 
28nm SE 
190753Z AUTO 20007KT 10SM CLR 29/22 A2989 RMK AO2 SLP110 T02890217
KGVT 
29nm N 
190830Z AUTO 19006KT 10SM CLR 30/21 A2987 RMK AO2
KF46 
34nm NW 
190835Z AUTO 21009KT 10SM CLR 29/20 A2987 RMK AO2 T02920202
KHQZ 
34nm W 
190835Z AUTO 18006KT 10SM CLR 27/19 A2988 RMK AO1 T02680193
KSLR 
35nm N 
190835Z AUTO 21008KT 10SM CLR 29/21 A2989 RMK AO2 T02910205
TAF
KTYR 
28nm SE 
190430Z 1905/1924 18012KT P6SM SKC FM191500 22010KT P6SM SCT120 SCT250
NOTAMs
Click for the latest NOTAMs
NOTAMs are issued by the DoD/FAA and will open in a separate window not controlled by AirNav.

 

 
 

Would you like to see your business listed on this page?

 If your business provides an interesting product or service to pilots, flight crews, aircraft, or users of the Thompson Field Airport, you should consider listing it here.  To start the listing process, click on the button below
 
Add a business
 

Other Pages about Thompson Field Airport

www.tailwindairpark.com
 
Update a link
 
Copyright © AirNav, LLC. All rights reserved. Privacy Policy  Contact